{"data":{"norad_id":61879,"epoch":"2026-09-21T20:36:17.652096Z","epoch_age_seconds":71086,"freshness":"FRESH","line1":"1 61879U 24204F   26264.85853764  .00000150  00000+0  60933-5 0  9990","line2":"2 61879  53.1588 109.3340 0000913 102.4578 257.6542 15.69705867107725","mean_motion":15.69705867,"eccentricity":9.13e-5,"inclination_deg":53.1588,"raan_deg":109.334,"arg_perigee_deg":102.4578,"mean_anomaly_deg":257.6542,"bstar":6.0933e-6,"rev_number":10772,"period_min":91.736931757292,"perigee_km":359.12340946948,"apogee_km":360.35374554993,"semimajor_km":6737.8755775097,"source":"CELESTRAK","updated_at":"2026-09-22T09:00:49.445412Z"}}